Time,TemperatureF,DewpointF,PressureIn,WindDirection,WindDirectionDegrees,WindSpeedMPH,WindSpeedGustMPH,Humidity,HourlyPrecipIn,Conditions,Clouds,dailyrainin,SoftwareType,DateUTC
2013-04-19 00:02:00,49.3,34.7,30.08,North,353,11.0,20.0,57,0.00,,,0.00,Wunderground v.1.15,2013-04-19 05:02:00,
2013-04-19 00:08:00,49.1,34.5,30.08,NNE,19,11.0,20.0,57,0.00,,,0.00,Wunderground v.1.15,2013-04-19 05:08:00,
2013-04-19 00:14:00,48.9,34.3,30.09,North,349,10.0,20.0,57,0.00,,,0.00,Wunderground v.1.15,2013-04-19 05:14:00,
2013-04-19 00:20:00,48.6,34.0,30.09,North,360,9.0,20.0,57,0.00,,,0.00,Wunderground v.1.15,2013-04-19 05:20:00,
2013-04-19 00:26:00,48.4,34.3,30.09,NNE,17,9.0,20.0,58,0.00,,,0.00,Wunderground v.1.15,2013-04-19 05:26:00,
2013-04-19 00:32:00,48.3,34.2,30.10,North,3,10.0,20.0,58,0.00,,,0.00,Wunderground v.1.15,2013-04-19 05:32:00,
2013-04-19 00:38:00,48.1,34.0,30.10,NNW,336,10.0,20.0,58,0.00,,,0.00,Wunderground v.1.15,2013-04-19 05:38:00,
2013-04-19 00:44:00,47.9,34.3,30.10,NNE,15,9.0,15.0,59,0.00,,,0.00,Wunderground v.1.15,2013-04-19 05:44:00,
2013-04-19 00:50:00,47.8,34.2,30.11,NNE,23,10.0,10.0,59,0.00,,,0.00,Wunderground v.1.15,2013-04-19 05:50:00,
2013-04-19 00:56:00,47.6,34.4,30.11,NNE,33,10.0,20.0,60,0.00,,,0.00,Wunderground v.1.15,2013-04-19 05:56:00,
2013-04-19 01:02:00,47.4,34.2,30.11,NNE,30,11.0,20.0,60,0.00,,,0.00,Wunderground v.1.15,2013-04-19 06:02:00,
2013-04-19 01:08:00,47.2,34.4,30.12,NNE,20,10.0,20.0,61,0.00,,,0.00,Wunderground v.1.15,2013-04-19 06:08:00,
2013-04-19 01:14:00,47.1,34.7,30.12,NNE,27,10.0,20.0,62,0.00,,,0.00,Wunderground v.1.15,2013-04-19 06:14:00,
2013-04-19 01:20:00,46.9,34.6,30.13,North,354,10.0,20.0,62,0.00,,,0.00,Wunderground v.1.15,2013-04-19 06:20:00,
2013-04-19 01:26:00,46.7,34.4,30.13,North,356,11.0,20.0,62,0.00,,,0.00,Wunderground v.1.15,2013-04-19 06:26:00,
2013-04-19 01:32:00,46.5,34.2,30.12,North,360,12.0,20.0,62,0.00,,,0.00,Wunderground v.1.15,2013-04-19 06:32:00,
2013-04-19 01:38:00,46.4,34.1,30.12,NNE,16,12.0,20.0,62,0.00,,,0.00,Wunderground v.1.15,2013-04-19 06:38:00,
2013-04-19 01:44:00,46.3,34.0,30.12,North,356,13.0,20.0,62,0.00,,,0.00,Wunderground v.1.15,2013-04-19 06:44:00,
2013-04-19 01:50:00,46.1,34.2,30.12,North,4,13.0,20.0,63,0.00,,,0.00,Wunderground v.1.15,2013-04-19 06:50:00,
2013-04-19 01:56:00,45.9,34.0,30.12,NNW,340,14.0,20.0,63,0.00,,,0.00,Wunderground v.1.15,2013-04-19 06:56:00,
2013-04-19 02:02:00,45.8,33.9,30.12,North,349,14.0,20.0,63,0.00,,,0.00,Wunderground v.1.15,2013-04-19 07:02:00,
2013-04-19 02:08:00,45.7,34.2,30.12,NNE,17,14.0,20.0,64,0.00,,,0.00,Wunderground v.1.15,2013-04-19 07:08:00,
2013-04-19 02:14:00,45.5,34.0,30.13,NNW,340,14.0,20.0,64,0.00,,,0.00,Wunderground v.1.15,2013-04-19 07:14:00,
2013-04-19 02:20:00,45.4,34.3,30.13,NE,41,14.0,14.0,65,0.00,,,0.00,Wunderground v.1.15,2013-04-19 07:20:00,
2013-04-19 02:26:00,45.1,34.0,30.13,North,356,13.0,20.0,65,0.00,,,0.00,Wunderground v.1.15,2013-04-19 07:26:00,
2013-04-19 02:32:00,45.0,33.9,30.14,NW,325,12.0,20.0,65,0.00,,,0.00,Wunderground v.1.15,2013-04-19 07:32:00,
2013-04-19 02:38:00,44.8,34.1,30.14,ENE,58,11.0,20.0,66,0.00,,,0.00,Wunderground v.1.15,2013-04-19 07:38:00,
2013-04-19 02:44:00,44.6,33.9,30.15,NNE,12,10.0,20.0,66,0.00,,,0.00,Wunderground v.1.15,2013-04-19 07:44:00,
2013-04-19 02:50:00,44.4,34.1,30.16,NNW,327,10.0,10.0,67,0.00,,,0.00,Wunderground v.1.15,2013-04-19 07:50:00,
2013-04-19 02:56:00,44.1,33.8,30.17,NNE,12,9.0,20.0,67,0.00,,,0.00,Wunderground v.1.15,2013-04-19 07:56:00,
2013-04-19 03:02:00,43.9,34.0,30.17,NE,36,8.0,20.0,68,0.00,,,0.00,Wunderground v.1.15,2013-04-19 08:02:00,
2013-04-19 03:08:00,43.8,33.9,30.17,NNE,29,7.0,20.0,68,0.00,,,0.00,Wunderground v.1.15,2013-04-19 08:08:00,
2013-04-19 03:14:00,43.5,33.6,30.18,North,359,7.0,20.0,68,0.00,,,0.00,Wunderground v.1.15,2013-04-19 08:14:00,
2013-04-19 03:20:00,43.4,33.2,30.18,North,354,7.0,20.0,67,0.00,,,0.00,Wunderground v.1.15,2013-04-19 08:20:00,
2013-04-19 03:26:00,43.2,33.0,30.19,NNE,15,7.0,20.0,67,0.00,,,0.00,Wunderground v.1.15,2013-04-19 08:26:00,
2013-04-19 03:32:00,43.0,33.2,30.19,NNE,23,6.0,20.0,68,0.00,,,0.00,Wunderground v.1.15,2013-04-19 08:32:00,
2013-04-19 03:38:00,42.9,33.1,30.20,NNE,30,5.0,20.0,68,0.00,,,0.00,Wunderground v.1.15,2013-04-19 08:38:00,
2013-04-19 03:44:00,42.6,32.8,30.20,NNW,345,4.0,20.0,68,0.00,,,0.00,Wunderground v.1.15,2013-04-19 08:44:00,
2013-04-19 03:50:00,42.2,32.8,30.21,NNE,28,3.0,20.0,69,0.00,,,0.00,Wunderground v.1.15,2013-04-19 08:50:00,
2013-04-19 03:56:00,41.8,32.7,30.21,NNE,24,3.0,20.0,70,0.00,,,0.00,Wunderground v.1.15,2013-04-19 08:56:00,
2013-04-19 04:02:00,41.5,32.8,30.21,North,5,3.0,20.0,71,0.00,,,0.00,Wunderground v.1.15,2013-04-19 09:02:00,
2013-04-19 04:08:00,40.9,32.6,30.21,NNE,26,2.0,20.0,72,0.00,,,0.00,Wunderground v.1.15,2013-04-19 09:08:00,
2013-04-19 04:14:00,40.4,32.8,30.22,North,11,2.0,20.0,74,0.00,,,0.00,Wunderground v.1.15,2013-04-19 09:14:00,
2013-04-19 04:20:00,39.8,32.5,30.22,North,8,2.0,20.0,75,0.00,,,0.00,Wunderground v.1.15,2013-04-19 09:20:00,
2013-04-19 04:26:00,39.5,32.6,30.22,NNE,13,2.0,20.0,76,0.00,,,0.00,Wunderground v.1.15,2013-04-19 09:26:00,
2013-04-19 04:32:00,39.3,32.7,30.22,North,8,3.0,20.0,77,0.00,,,0.00,Wunderground v.1.15,2013-04-19 09:32:00,
2013-04-19 04:38:00,39.0,32.4,30.22,North,9,3.0,20.0,77,0.00,,,0.00,Wunderground v.1.15,2013-04-19 09:38:00,
2013-04-19 04:44:00,38.8,32.5,30.22,North,9,2.0,20.0,78,0.00,,,0.00,Wunderground v.1.15,2013-04-19 09:44:00,
2013-04-19 04:50:00,38.6,32.6,30.22,NNE,25,2.0,2.0,79,0.00,,,0.00,Wunderground v.1.15,2013-04-19 09:50:00,
2013-04-19 04:56:00,38.4,32.5,30.22,North,353,2.0,20.0,79,0.00,,,0.00,Wunderground v.1.15,2013-04-19 09:56:00,
2013-04-19 05:02:00,38.4,32.5,30.22,NNW,342,3.0,20.0,79,0.00,,,0.00,Wunderground v.1.15,2013-04-19 10:02:00,
2013-04-19 05:08:00,38.4,32.5,30.22,North,360,4.0,20.0,79,0.00,,,0.00,Wunderground v.1.15,2013-04-19 10:08:00,
2013-04-19 05:14:00,38.5,32.6,30.23,NW,325,4.0,20.0,79,0.00,,,0.00,Wunderground v.1.15,2013-04-19 10:14:00,
2013-04-19 05:20:00,38.5,32.2,30.23,North,356,4.0,4.0,78,0.00,,,0.00,Wunderground v.1.15,2013-04-19 10:20:00,
2013-04-19 05:26:00,38.5,32.2,30.23,North,11,4.0,20.0,78,0.00,,,0.00,Wunderground v.1.15,2013-04-19 10:26:00,
2013-04-19 05:32:00,38.4,32.1,30.23,NNE,15,5.0,20.0,78,0.00,,,0.00,Wunderground v.1.15,2013-04-19 10:32:00,
2013-04-19 05:38:00,38.3,32.0,30.24,NNW,340,4.0,20.0,78,0.00,,,0.00,Wunderground v.1.15,2013-04-19 10:38:00,
2013-04-19 05:44:00,38.1,31.8,30.24,NNE,16,4.0,20.0,78,0.00,,,0.00,Wunderground v.1.15,2013-04-19 10:44:00,
2013-04-19 05:50:00,37.8,31.9,30.24,NNW,342,3.0,3.0,79,0.00,,,0.00,Wunderground v.1.15,2013-04-19 10:50:00,
2013-04-19 05:56:00,37.5,31.9,30.24,NNE,16,3.0,20.0,80,0.00,,,0.00,Wunderground v.1.15,2013-04-19 10:56:00,
2013-04-19 06:02:00,37.2,31.6,30.24,North,351,3.0,3.0,80,0.00,,,0.00,Wunderground v.1.15,2013-04-19 11:02:00,
2013-04-19 06:08:00,37.0,31.7,30.24,NNE,20,3.0,3.0,81,0.00,,,0.00,Wunderground v.1.15,2013-04-19 11:08:00,
2013-04-19 06:14:00,37.0,31.7,30.24,North,349,3.0,5.0,81,0.00,,,0.00,Wunderground v.1.15,2013-04-19 11:14:00,
2013-04-19 06:20:00,37.1,31.5,30.24,NNW,335,4.0,4.0,80,0.00,,,0.00,Wunderground v.1.15,2013-04-19 11:20:00,
2013-04-19 06:26:00,37.3,31.7,30.24,North,11,4.0,4.0,80,0.00,,,0.00,Wunderground v.1.15,2013-04-19 11:26:00,
2013-04-19 06:32:00,37.3,31.7,30.25,NNW,345,4.0,4.0,80,0.00,,,0.00,Wunderground v.1.15,2013-04-19 11:32:00,
2013-04-19 06:38:00,37.3,31.4,30.25,North,360,4.0,4.0,79,0.00,,,0.00,Wunderground v.1.15,2013-04-19 11:38:00,
2013-04-19 06:44:00,37.3,31.4,30.25,NNE,16,3.0,3.0,79,0.00,,,0.00,Wunderground v.1.15,2013-04-19 11:44:00,
2013-04-19 06:50:00,37.4,31.5,30.25,North,356,3.0,3.0,79,0.00,,,0.00,Wunderground v.1.15,2013-04-19 11:50:00,
2013-04-19 06:56:00,37.5,31.3,30.26,NNE,22,3.0,6.0,78,0.00,,,0.00,Wunderground v.1.15,2013-04-19 11:56:00,
2013-04-19 07:02:00,37.5,31.3,30.26,North,350,3.0,5.0,78,0.00,,,0.00,Wunderground v.1.15,2013-04-19 12:02:00,
2013-04-19 07:08:00,37.6,31.4,30.26,NNE,23,3.0,5.0,78,0.00,,,0.00,Wunderground v.1.15,2013-04-19 12:08:00,
2013-04-19 07:14:00,38.0,31.1,30.26,North,350,4.0,6.0,76,0.00,,,0.00,Wunderground v.1.15,2013-04-19 12:14:00,
2013-04-19 07:20:00,38.5,31.3,30.27,North,7,5.0,5.0,75,0.00,,,0.00,Wunderground v.1.15,2013-04-19 12:20:00,
2013-04-19 07:26:00,39.1,30.8,30.27,NNW,342,5.0,7.0,72,0.00,,,0.00,Wunderground v.1.15,2013-04-19 12:26:00,
2013-04-19 07:32:00,39.6,30.6,30.27,North,5,6.0,6.0,70,0.00,,,0.00,Wunderground v.1.15,2013-04-19 12:32:00,
2013-04-19 07:38:00,40.2,30.1,30.28,NNW,341,6.0,7.0,67,0.00,,,0.00,Wunderground v.1.15,2013-04-19 12:38:00,
2013-04-19 07:44:00,41.0,29.7,30.28,North,354,7.0,8.0,64,0.00,,,0.00,Wunderground v.1.15,2013-04-19 12:44:00,
2013-04-19 07:50:00,42.0,29.9,30.28,NNW,328,7.0,7.0,62,0.00,,,0.00,Wunderground v.1.15,2013-04-19 12:50:00,
2013-04-19 07:56:00,42.7,29.8,30.29,NE,41,7.0,10.0,60,0.00,,,0.00,Wunderground v.1.15,2013-04-19 12:56:00,
2013-04-19 08:02:00,43.5,29.7,30.29,North,356,7.0,11.0,58,0.00,,,0.00,Wunderground v.1.15,2013-04-19 13:02:00,
2013-04-19 08:08:00,44.3,30.0,30.30,NNW,331,7.0,11.0,57,0.00,,,0.00,Wunderground v.1.15,2013-04-19 13:08:00,
2013-04-19 08:14:00,44.9,29.7,30.30,NNE,23,7.0,11.0,55,0.00,,,0.00,Wunderground v.1.15,2013-04-19 13:14:00,
2013-04-19 08:20:00,45.6,29.4,30.30,NNW,338,8.0,8.0,53,0.00,,,0.00,Wunderground v.1.15,2013-04-19 13:20:00,
2013-04-19 08:26:00,46.2,29.1,30.31,NNE,17,8.0,13.0,51,0.00,,,0.00,Wunderground v.1.15,2013-04-19 13:26:00,
2013-04-19 08:32:00,46.6,27.9,30.31,NNW,343,9.0,9.0,48,0.00,,,0.00,Wunderground v.1.15,2013-04-19 13:32:00,
2013-04-19 08:38:00,47.3,29.6,30.31,NNW,328,8.0,9.0,50,0.00,,,0.00,Wunderground v.1.15,2013-04-19 13:38:00,
2013-04-19 08:44:00,47.7,28.9,30.31,NNE,19,7.0,11.0,48,0.00,,,0.00,Wunderground v.1.15,2013-04-19 13:44:00,
2013-04-19 08:50:00,47.9,27.6,30.31,North,6,9.0,9.0,45,0.00,,,0.00,Wunderground v.1.15,2013-04-19 13:50:00,
2013-04-19 08:56:00,48.4,26.9,30.31,North,354,10.0,10.0,43,0.00,,,0.00,Wunderground v.1.15,2013-04-19 13:56:00,
2013-04-19 09:02:00,48.6,26.5,30.32,WNW,295,10.0,13.0,42,0.00,,,0.00,Wunderground v.1.15,2013-04-19 14:02:00,
2013-04-19 09:08:00,48.8,26.1,30.32,NW,324,11.0,14.0,41,0.00,,,0.00,Wunderground v.1.15,2013-04-19 14:08:00,
2013-04-19 09:14:00,49.1,25.2,30.32,NW,322,12.0,12.0,39,0.00,,,0.00,Wunderground v.1.15,2013-04-19 14:14:00,
2013-04-19 09:20:00,49.5,24.9,30.32,NNW,330,10.0,10.0,38,0.00,,,0.00,Wunderground v.1.15,2013-04-19 14:20:00,
2013-04-19 09:26:00,49.9,24.6,30.32,North,8,11.0,14.0,37,0.00,,,0.00,Wunderground v.1.15,2013-04-19 14:26:00,
2013-04-19 09:32:00,50.1,22.8,30.33,NNW,328,11.0,11.0,34,0.00,,,0.00,Wunderground v.1.15,2013-04-19 14:32:00,
2013-04-19 09:38:00,50.4,22.3,30.33,NNE,22,11.0,13.0,33,0.00,,,0.00,Wunderground v.1.15,2013-04-19 14:38:00,
2013-04-19 09:44:00,50.6,22.5,30.33,NW,325,11.0,11.0,33,0.00,,,0.00,Wunderground v.1.15,2013-04-19 14:44:00,
2013-04-19 09:50:00,50.7,24.0,30.33,WNW,300,11.0,11.0,35,0.00,,,0.00,Wunderground v.1.15,2013-04-19 14:50:00,
2013-04-19 09:56:00,50.9,24.2,30.33,NNW,330,11.0,18.0,35,0.00,,,0.00,Wunderground v.1.15,2013-04-19 14:56:00,
2013-04-19 10:02:00,51.4,24.6,30.33,NNE,30,11.0,12.0,35,0.00,,,0.00,Wunderground v.1.15,2013-04-19 15:02:00,
2013-04-19 10:08:00,51.8,25.7,30.34,NW,322,10.0,12.0,36,0.00,,,0.00,Wunderground v.1.15,2013-04-19 15:08:00,
2013-04-19 10:14:00,52.6,25.0,30.34,NNW,327,8.0,10.0,34,0.00,,,0.00,Wunderground v.1.15,2013-04-19 15:14:00,
2013-04-19 10:20:00,52.5,24.9,30.34,NNW,333,8.0,8.0,34,0.00,,,0.00,Wunderground v.1.15,2013-04-19 15:20:00,
2013-04-19 10:26:00,53.3,25.6,30.34,NNW,341,8.0,9.0,34,0.00,,,0.00,Wunderground v.1.15,2013-04-19 15:26:00,
2013-04-19 10:32:00,53.2,24.8,30.34,North,9,8.0,14.0,33,0.00,,,0.00,Wunderground v.1.15,2013-04-19 15:32:00,
2013-04-19 10:38:00,53.1,24.7,30.34,WNW,300,9.0,14.0,33,0.00,,,0.00,Wunderground v.1.15,2013-04-19 15:38:00,
2013-04-19 10:44:00,53.1,25.4,30.34,NNW,333,10.0,15.0,34,0.00,,,0.00,Wunderground v.1.15,2013-04-19 15:44:00,
2013-04-19 10:50:00,52.7,25.1,30.34,NW,321,11.0,11.0,34,0.00,,,0.00,Wunderground v.1.15,2013-04-19 15:50:00,
2013-04-19 10:56:00,53.1,24.7,30.34,NW,315,11.0,12.0,33,0.00,,,0.00,Wunderground v.1.15,2013-04-19 15:56:00,
2013-04-19 11:02:00,53.5,26.5,30.34,NNE,20,11.0,15.0,35,0.00,,,0.00,Wunderground v.1.15,2013-04-19 16:02:00,
2013-04-19 11:08:00,54.0,26.2,30.34,NNE,12,10.0,19.0,34,0.00,,,0.00,Wunderground v.1.15,2013-04-19 16:08:00,
2013-04-19 11:14:00,54.3,25.8,30.35,NNW,340,9.0,16.0,33,0.00,,,0.00,Wunderground v.1.15,2013-04-19 16:14:00,
2013-04-19 11:20:00,54.6,26.0,30.35,NNW,345,9.0,9.0,33,0.00,,,0.00,Wunderground v.1.15,2013-04-19 16:20:00,
2013-04-19 11:26:00,54.9,25.6,30.34,North,5,8.0,9.0,32,0.00,,,0.00,Wunderground v.1.15,2013-04-19 16:26:00,
2013-04-19 11:32:00,55.6,25.4,30.35,NW,312,9.0,11.0,31,0.00,,,0.00,Wunderground v.1.15,2013-04-19 16:32:00,
2013-04-19 11:38:00,55.5,26.1,30.34,NNW,345,8.0,11.0,32,0.00,,,0.00,Wunderground v.1.15,2013-04-19 16:38:00,
2013-04-19 11:44:00,56.2,25.9,30.35,WNW,302,8.0,10.0,31,0.00,,,0.00,Wunderground v.1.15,2013-04-19 16:44:00,
2013-04-19 11:50:00,56.8,26.5,30.34,North,5,7.0,13.0,31,0.00,,,0.00,Wunderground v.1.15,2013-04-19 16:50:00,
2013-04-19 11:56:00,56.7,27.1,30.34,NNW,338,8.0,13.0,32,0.00,,,0.00,Wunderground v.1.15,2013-04-19 16:56:00,
2013-04-19 12:02:00,56.8,26.5,30.34,WSW,238,9.0,15.0,31,0.00,,,0.00,Wunderground v.1.15,2013-04-19 17:02:00,
2013-04-19 12:08:00,57.1,26.7,30.34,North,350,9.0,15.0,31,0.00,,,0.00,Wunderground v.1.15,2013-04-19 17:08:00,
2013-04-19 12:14:00,57.4,26.2,30.33,NNW,333,9.0,15.0,30,0.00,,,0.00,Wunderground v.1.15,2013-04-19 17:14:00,
2013-04-19 12:20:00,57.4,26.2,30.33,North,4,10.0,10.0,30,0.00,,,0.00,Wunderground v.1.15,2013-04-19 17:20:00,
2013-04-19 12:26:00,58.1,26.0,30.33,NNW,328,8.0,15.0,29,0.00,,,0.00,Wunderground v.1.15,2013-04-19 17:26:00,
2013-04-19 12:32:00,58.2,24.3,30.33,NW,322,9.0,14.0,27,0.00,,,0.00,Wunderground v.1.15,2013-04-19 17:32:00,
2013-04-19 12:38:00,58.6,24.7,30.33,NW,316,8.0,14.0,27,0.00,,,0.00,Wunderground v.1.15,2013-04-19 17:38:00,
2013-04-19 12:44:00,58.7,25.6,30.32,NE,39,7.0,10.0,28,0.00,,,0.00,Wunderground v.1.15,2013-04-19 17:44:00,
2013-04-19 12:50:00,59.0,25.9,30.32,NNE,12,8.0,15.0,28,0.00,,,0.00,Wunderground v.1.15,2013-04-19 17:50:00,
2013-04-19 12:56:00,58.7,24.8,30.32,WNW,300,9.0,15.0,27,0.00,,,0.00,Wunderground v.1.15,2013-04-19 17:56:00,
2013-04-19 13:02:00,59.3,25.3,30.32,NW,304,9.0,9.0,27,0.00,,,0.00,Wunderground v.1.15,2013-04-19 18:02:00,
2013-04-19 13:08:00,59.5,24.5,30.32,NNE,22,10.0,15.0,26,0.00,,,0.00,Wunderground v.1.15,2013-04-19 18:08:00,
2013-04-19 13:14:00,59.5,26.3,30.31,North,4,10.0,17.0,28,0.00,,,0.00,Wunderground v.1.15,2013-04-19 18:14:00,
2013-04-19 13:20:00,59.8,23.9,30.31,NNW,340,8.0,9.0,25,0.00,,,0.00,Wunderground v.1.15,2013-04-19 18:20:00,
2013-04-19 13:26:00,60.8,26.6,30.31,WNW,300,7.0,9.0,27,0.00,,,0.00,Wunderground v.1.15,2013-04-19 18:26:00,
2013-04-19 13:32:00,61.2,26.0,30.31,NW,305,5.0,6.0,26,0.00,,,0.00,Wunderground v.1.15,2013-04-19 18:32:00,
2013-04-19 13:38:00,61.3,27.0,30.31,NE,34,7.0,13.0,27,0.00,,,0.00,Wunderground v.1.15,2013-04-19 18:38:00,
2013-04-19 13:44:00,61.4,26.2,30.31,North,351,8.0,12.0,26,0.00,,,0.00,Wunderground v.1.15,2013-04-19 18:44:00,
2013-04-19 13:50:00,61.4,25.2,30.30,NNW,338,8.0,8.0,25,0.00,,,0.00,Wunderground v.1.15,2013-04-19 18:50:00,
2013-04-19 13:56:00,61.5,26.3,30.30,NW,312,8.0,9.0,26,0.00,,,0.00,Wunderground v.1.15,2013-04-19 18:56:00,
2013-04-19 14:02:00,61.6,26.3,30.29,North,6,8.0,11.0,26,0.00,,,0.00,Wunderground v.1.15,2013-04-19 19:02:00,
2013-04-19 14:08:00,61.2,25.1,30.29,NNW,345,10.0,18.0,25,0.00,,,0.00,Wunderground v.1.15,2013-04-19 19:08:00,
2013-04-19 14:14:00,61.7,26.4,30.28,North,1,10.0,12.0,26,0.00,,,0.00,Wunderground v.1.15,2013-04-19 19:14:00,
2013-04-19 14:20:00,61.8,27.4,30.28,NNE,16,9.0,9.0,27,0.00,,,0.00,Wunderground v.1.15,2013-04-19 19:20:00,
2013-04-19 14:26:00,62.0,26.7,30.28,NNW,348,10.0,14.0,26,0.00,,,0.00,Wunderground v.1.15,2013-04-19 19:26:00,
2013-04-19 14:32:00,62.1,25.8,30.28,NNE,20,9.0,10.0,25,0.00,,,0.00,Wunderground v.1.15,2013-04-19 19:32:00,
2013-04-19 14:38:00,62.0,26.7,30.27,North,4,8.0,12.0,26,0.00,,,0.00,Wunderground v.1.15,2013-04-19 19:38:00,
2013-04-19 14:44:00,62.6,27.2,30.27,NNE,30,8.0,8.0,26,0.00,,,0.00,Wunderground v.1.15,2013-04-19 19:44:00,
2013-04-19 14:50:00,63.1,28.5,30.27,North,351,7.0,7.0,27,0.00,,,0.00,Wunderground v.1.15,2013-04-19 19:50:00,
2013-04-19 14:56:00,63.0,27.5,30.27,NNE,26,7.0,12.0,26,0.00,,,0.00,Wunderground v.1.15,2013-04-19 19:56:00,
2013-04-19 15:02:00,63.6,28.1,30.27,NNW,334,8.0,8.0,26,0.00,,,0.00,Wunderground v.1.15,2013-04-19 20:02:00,
2013-04-19 15:08:00,63.5,27.0,30.26,North,349,7.0,10.0,25,0.00,,,0.00,Wunderground v.1.15,2013-04-19 20:08:00,
2013-04-19 15:14:00,63.7,27.2,30.26,NW,323,7.0,13.0,25,0.00,,,0.00,Wunderground v.1.15,2013-04-19 20:14:00,
2013-04-19 15:20:00,63.8,27.3,30.26,NNW,343,6.0,6.0,25,0.00,,,0.00,Wunderground v.1.15,2013-04-19 20:20:00,
2013-04-19 15:26:00,63.8,27.3,30.25,West,267,6.0,9.0,25,0.00,,,0.00,Wunderground v.1.15,2013-04-19 20:26:00,
2013-04-19 15:32:00,63.4,26.9,30.25,North,354,7.0,12.0,25,0.00,,,0.00,Wunderground v.1.15,2013-04-19 20:32:00,
2013-04-19 15:38:00,63.7,26.2,30.25,NNW,333,8.0,12.0,24,0.00,,,0.00,Wunderground v.1.15,2013-04-19 20:38:00,
2013-04-19 15:44:00,63.8,27.3,30.24,NNW,345,8.0,8.0,25,0.00,,,0.00,Wunderground v.1.15,2013-04-19 20:44:00,
2013-04-19 15:50:00,64.1,26.5,30.24,North,358,7.0,10.0,24,0.00,,,0.00,Wunderground v.1.15,2013-04-19 20:50:00,
2013-04-19 15:56:00,63.9,26.4,30.23,NW,306,7.0,10.0,24,0.00,,,0.00,Wunderground v.1.15,2013-04-19 20:56:00,
2013-04-19 16:02:00,64.2,26.6,30.23,WSW,257,6.0,7.0,24,0.00,,,0.00,Wunderground v.1.15,2013-04-19 21:02:00,
2013-04-19 16:08:00,64.7,27.0,30.23,NW,319,7.0,9.0,24,0.00,,,0.00,Wunderground v.1.15,2013-04-19 21:08:00,
2013-04-19 16:14:00,64.1,25.5,30.23,WNW,284,6.0,8.0,23,0.00,,,0.00,Wunderground v.1.15,2013-04-19 21:14:00,
2013-04-19 16:20:00,64.1,26.5,30.22,NNW,330,5.0,5.0,24,0.00,,,0.00,Wunderground v.1.15,2013-04-19 21:20:00,
2013-04-19 16:26:00,64.5,26.9,30.22,NNW,345,5.0,8.0,24,0.00,,,0.00,Wunderground v.1.15,2013-04-19 21:26:00,
2013-04-19 16:32:00,64.2,25.6,30.22,West,281,6.0,6.0,23,0.00,,,0.00,Wunderground v.1.15,2013-04-19 21:32:00,
2013-04-19 16:38:00,64.5,26.9,30.21,NW,305,5.0,10.0,24,0.00,,,0.00,Wunderground v.1.15,2013-04-19 21:38:00,
2013-04-19 16:44:00,64.4,26.8,30.21,NE,40,7.0,8.0,24,0.00,,,0.00,Wunderground v.1.15,2013-04-19 21:44:00,
2013-04-19 16:50:00,64.3,25.7,30.20,NE,44,8.0,10.0,23,0.00,,,0.00,Wunderground v.1.15,2013-04-19 21:50:00,
2013-04-19 16:56:00,64.5,26.9,30.20,North,359,8.0,14.0,24,0.00,,,0.00,Wunderground v.1.15,2013-04-19 21:56:00,
2013-04-19 17:02:00,64.7,26.0,30.21,WNW,295,6.0,7.0,23,0.00,,,0.00,Wunderground v.1.15,2013-04-19 22:02:00,
2013-04-19 17:08:00,64.3,26.7,30.20,NNW,338,4.0,7.0,24,0.00,,,0.00,Wunderground v.1.15,2013-04-19 22:08:00,
2013-04-19 17:14:00,64.1,25.5,30.20,NW,320,5.0,9.0,23,0.00,,,0.00,Wunderground v.1.15,2013-04-19 22:14:00,
2013-04-19 17:20:00,64.0,26.4,30.19,North,11,7.0,9.0,24,0.00,,,0.00,Wunderground v.1.15,2013-04-19 22:20:00,
2013-04-19 17:26:00,64.5,25.8,30.20,NNE,33,6.0,14.0,23,0.00,,,0.00,Wunderground v.1.15,2013-04-19 22:26:00,
2013-04-19 17:32:00,64.3,26.7,30.19,NNE,23,4.0,6.0,24,0.00,,,0.00,Wunderground v.1.15,2013-04-19 22:32:00,
2013-04-19 17:38:00,64.6,25.9,30.19,NNW,333,4.0,6.0,23,0.00,,,0.00,Wunderground v.1.15,2013-04-19 22:38:00,
2013-04-19 17:44:00,64.7,27.0,30.19,North,356,4.0,6.0,24,0.00,,,0.00,Wunderground v.1.15,2013-04-19 22:44:00,
2013-04-19 17:50:00,65.0,27.3,30.19,NW,314,4.0,6.0,24,0.00,,,0.00,Wunderground v.1.15,2013-04-19 22:50:00,
2013-04-19 17:56:00,64.7,26.0,30.19,North,350,5.0,9.0,23,0.00,,,0.00,Wunderground v.1.15,2013-04-19 22:56:00,
2013-04-19 18:02:00,64.5,24.8,30.19,WNW,287,4.0,5.0,22,0.00,,,0.00,Wunderground v.1.15,2013-04-19 23:02:00,
2013-04-19 18:08:00,64.7,26.0,30.19,NE,34,4.0,12.0,23,0.00,,,0.00,Wunderground v.1.15,2013-04-19 23:08:00,
2013-04-19 18:14:00,64.2,25.6,30.19,NNE,27,6.0,8.0,23,0.00,,,0.00,Wunderground v.1.15,2013-04-19 23:14:00,
2013-04-19 18:20:00,63.9,25.3,30.19,NNW,345,6.0,8.0,23,0.00,,,0.00,Wunderground v.1.15,2013-04-19 23:20:00,
2013-04-19 18:26:00,63.9,25.3,30.19,North,349,4.0,8.0,23,0.00,,,0.00,Wunderground v.1.15,2013-04-19 23:26:00,
2013-04-19 18:32:00,63.6,25.1,30.19,NNE,32,3.0,6.0,23,0.00,,,0.00,Wunderground v.1.15,2013-04-19 23:32:00,
2013-04-19 18:38:00,63.7,26.2,30.19,WNW,302,4.0,6.0,24,0.00,,,0.00,Wunderground v.1.15,2013-04-19 23:38:00,
2013-04-19 18:44:00,63.5,25.0,30.19,NNE,19,4.0,5.0,23,0.00,,,0.00,Wunderground v.1.15,2013-04-19 23:44:00,
2013-04-19 18:50:00,63.5,26.0,30.19,North,5,3.0,5.0,24,0.00,,,0.00,Wunderground v.1.15,2013-04-19 23:50:00,
2013-04-19 18:56:00,63.4,24.9,30.19,North,349,3.0,5.0,23,0.00,,,0.00,Wunderground v.1.15,2013-04-19 23:56:00,
2013-04-19 19:02:00,63.2,25.8,30.19,NNE,13,3.0,5.0,24,0.00,,,0.00,Wunderground v.1.15,2013-04-20 00:02:00,
2013-04-19 19:08:00,62.9,25.5,30.18,NNW,345,3.0,5.0,24,0.00,,,0.00,Wunderground v.1.15,2013-04-20 00:08:00,
2013-04-19 19:14:00,62.6,26.2,30.19,North,1,2.0,5.0,25,0.00,,,0.00,Wunderground v.1.15,2013-04-20 00:14:00,
2013-04-19 19:20:00,62.4,27.0,30.18,East,79,2.0,2.0,26,0.00,,,0.00,Wunderground v.1.15,2013-04-20 00:20:00,
2013-04-19 19:26:00,62.2,26.9,30.18,North,8,2.0,5.0,26,0.00,,,0.00,Wunderground v.1.15,2013-04-20 00:26:00,
2013-04-19 19:32:00,62.0,26.7,30.19,North,1,1.0,5.0,26,0.00,,,0.00,Wunderground v.1.15,2013-04-20 00:32:00,
2013-04-19 19:38:00,61.6,27.3,30.18,North,5,1.0,5.0,27,0.00,,,0.00,Wunderground v.1.15,2013-04-20 00:38:00,
2013-04-19 19:44:00,60.9,26.7,30.18,NNE,27,2.0,5.0,27,0.00,,,0.00,Wunderground v.1.15,2013-04-20 00:44:00,
2013-04-19 19:50:00,60.4,28.0,30.19,NE,34,2.0,2.0,29,0.00,,,0.00,Wunderground v.1.15,2013-04-20 00:50:00,
2013-04-19 19:56:00,59.4,27.9,30.19,NE,37,1.0,5.0,30,0.00,,,0.00,Wunderground v.1.15,2013-04-20 00:56:00,
2013-04-19 20:02:00,58.3,27.8,30.19,North,360,0.0,5.0,31,0.00,,,0.00,Wunderground v.1.15,2013-04-20 01:02:00,
2013-04-19 20:08:00,57.3,26.9,30.19,NE,46,0.0,5.0,31,0.00,,,0.00,Wunderground v.1.15,2013-04-20 01:08:00,
2013-04-19 20:14:00,56.7,27.1,30.19,NE,47,0.0,5.0,32,0.00,,,0.00,Wunderground v.1.15,2013-04-20 01:14:00,
2013-04-19 20:20:00,56.3,27.5,30.20,NE,51,1.0,5.0,33,0.00,,,0.00,Wunderground v.1.15,2013-04-20 01:20:00,
2013-04-19 20:26:00,55.7,27.7,30.20,NNE,13,0.0,5.0,34,0.00,,,0.00,Wunderground v.1.15,2013-04-20 01:26:00,
2013-04-19 20:32:00,55.2,27.3,30.20,NE,49,0.0,5.0,34,0.00,,,0.00,Wunderground v.1.15,2013-04-20 01:32:00,
2013-04-19 20:38:00,55.0,27.1,30.20,East,86,1.0,5.0,34,0.00,,,0.00,Wunderground v.1.15,2013-04-20 01:38:00,
2013-04-19 20:44:00,55.0,26.4,30.21,NE,40,0.0,5.0,33,0.00,,,0.00,Wunderground v.1.15,2013-04-20 01:44:00,
2013-04-19 20:50:00,54.8,26.9,30.21,ENE,64,0.0,5.0,34,0.00,,,0.00,Wunderground v.1.15,2013-04-20 01:50:00,
2013-04-19 20:56:00,54.7,26.1,30.21,NE,51,0.0,5.0,33,0.00,,,0.00,Wunderground v.1.15,2013-04-20 01:56:00,
2013-04-19 21:02:00,54.7,26.1,30.21,NE,46,1.0,5.0,33,0.00,,,0.00,Wunderground v.1.15,2013-04-20 02:02:00,
2013-04-19 21:08:00,54.7,26.1,30.22,ENE,70,1.0,5.0,33,0.00,,,0.00,Wunderground v.1.15,2013-04-20 02:08:00,
2013-04-19 21:14:00,54.6,26.0,30.22,ENE,58,1.0,5.0,33,0.00,,,0.00,Wunderground v.1.15,2013-04-20 02:14:00,
2013-04-19 21:20:00,54.5,26.7,30.22,ENE,75,1.0,5.0,34,0.00,,,0.00,Wunderground v.1.15,2013-04-20 02:20:00,
2013-04-19 21:26:00,54.3,26.5,30.22,East,80,0.0,5.0,34,0.00,,,0.00,Wunderground v.1.15,2013-04-20 02:26:00,
2013-04-19 21:34:00,54.1,25.6,30.22,ENE,72,0.0,5.0,33,0.00,,,0.00,Wunderground v.1.15,2013-04-20 02:34:00,
2013-04-19 21:40:00,53.8,26.1,30.22,NE,45,0.0,5.0,34,0.00,,,0.00,Wunderground v.1.15,2013-04-20 02:40:00,
2013-04-19 21:48:00,53.8,26.1,30.23,NE,48,0.0,5.0,34,0.00,,,0.00,Wunderground v.1.15,2013-04-20 02:48:00,
2013-04-19 21:54:00,53.9,25.4,30.23,NE,49,1.0,5.0,33,0.00,,,0.00,Wunderground v.1.15,2013-04-20 02:54:00,
2013-04-19 22:00:00,54.1,25.6,30.23,ENE,76,1.0,5.0,33,0.00,,,0.00,Wunderground v.1.15,2013-04-20 03:00:00,
2013-04-19 22:06:00,54.0,25.5,30.23,NE,43,1.0,5.0,33,0.00,,,0.00,Wunderground v.1.15,2013-04-20 03:06:00,
2013-04-19 22:12:00,53.9,25.4,30.23,ENE,75,1.0,2.0,33,0.00,,,0.00,Wunderground v.1.15,2013-04-20 03:12:00,
2013-04-19 22:18:00,53.8,25.3,30.23,ENE,77,1.0,5.0,33,0.00,,,0.00,Wunderground v.1.15,2013-04-20 03:18:00,
2013-04-19 22:24:00,53.8,25.3,30.23,NE,48,1.0,5.0,33,0.00,,,0.00,Wunderground v.1.15,2013-04-20 03:24:00,
2013-04-19 22:30:00,53.7,25.2,30.23,East,95,1.0,5.0,33,0.00,,,0.00,Wunderground v.1.15,2013-04-20 03:30:00,
2013-04-19 22:36:00,53.6,24.4,30.23,ENE,72,1.0,5.0,32,0.00,,,0.00,Wunderground v.1.15,2013-04-20 03:36:00,
2013-04-19 22:42:00,53.6,25.2,30.23,NE,46,1.0,5.0,33,0.00,,,0.00,Wunderground v.1.15,2013-04-20 03:42:00,
2013-04-19 22:48:00,53.3,25.6,30.23,East,87,1.0,5.0,34,0.00,,,0.00,Wunderground v.1.15,2013-04-20 03:48:00,
2013-04-19 22:54:00,53.0,25.3,30.23,ESE,113,1.0,5.0,34,0.00,,,0.00,Wunderground v.1.15,2013-04-20 03:54:00,
2013-04-19 23:00:00,52.6,25.7,30.24,SE,131,1.0,5.0,35,0.00,,,0.00,Wunderground v.1.15,2013-04-20 04:00:00,
2013-04-19 23:02:00,52.5,25.6,30.24,SE,142,1.0,5.0,35,0.00,,,0.00,Wunderground v.1.15,2013-04-20 04:02:00,
2013-04-19 23:04:00,52.4,25.5,30.24,ESE,107,1.0,5.0,35,0.00,,,0.00,Wunderground v.1.15,2013-04-20 04:04:00,
2013-04-19 23:06:00,52.4,25.5,30.24,SE,133,2.0,5.0,35,0.00,,,0.00,Wunderground v.1.15,2013-04-20 04:06:00,
2013-04-19 23:08:00,52.4,25.5,30.24,ESE,116,2.0,5.0,35,0.00,,,0.00,Wunderground v.1.15,2013-04-20 04:08:00,
2013-04-19 23:14:00,52.3,25.4,30.24,East,100,2.0,5.0,35,0.00,,,0.00,Wunderground v.1.15,2013-04-20 04:14:00,
2013-04-19 23:22:00,52.1,25.9,30.24,SE,129,2.0,5.0,36,0.00,,,0.00,Wunderground v.1.15,2013-04-20 04:22:00,
2013-04-19 23:28:00,51.8,25.7,30.24,SE,138,2.0,5.0,36,0.00,,,0.00,Wunderground v.1.15,2013-04-20 04:28:00,
2013-04-19 23:32:00,51.4,26.0,30.24,SSE,148,2.0,5.0,37,0.00,,,0.00,Wunderground v.1.15,2013-04-20 04:32:00,
2013-04-19 23:38:00,51.2,25.8,30.23,SE,142,2.0,5.0,37,0.00,,,0.00,Wunderground v.1.15,2013-04-20 04:38:00,
2013-04-19 23:44:00,51.1,26.3,30.23,SE,135,2.0,5.0,38,0.00,,,0.00,Wunderground v.1.15,2013-04-20 04:44:00,
2013-04-19 23:50:00,50.8,26.1,30.23,SE,145,3.0,5.0,38,0.00,,,0.00,Wunderground v.1.15,2013-04-20 04:50:00,
2013-04-19 23:56:00,50.7,26.6,30.23,SSE,153,4.0,6.0,39,0.00,,,0.00,Wunderground v.1.15,2013-04-20 04:56:00,